Location: Newark
(44.5208°N, 2.4294°E)
Time: 12:08:49
(UTC+00:00)

Envisat - Pass Details

Date: 24 September 2019
Orbit: 764 x 766 km, 98.1° (Epoch: 22 October)

Event Time Altitude Azimuth Distance (km) Brightness Sun altitude
Rises 18:33:48 0° 186° (S) 3,219 6.2 -9.5°
Reaches altitude 10° 18:36:14 10° 195° (SSW) 2,297 5.5 -10.0°
Maximum altitude 18:40:57 38° 263° (W) 1,151 4.6 -10.8°
Drops below altitude 10° 18:45:42 10° 331° (NNW) 2,313 6.1 -11.6°
Sets 18:48:10 0° 340° (NNW) 3,243 6.7 -12.1°
